Theta_e
334 335 328 324 327 324 318 311 293 298 298 291 290 293 290 301 299 297 295 296 296 300 303 303 304 305 303 301 302 305 307 304 303 293 292 308 314 319 321 323 326 328 327 327 327 327 328 336 336 337 337 337 338 338 338 340 342 342 342 343 343 343 344 344 344 344 344 345 345 345 344 344 344 344 344 345 345 345 345 344 344 344 345 346 347 347 348 348 347 346 346 346 345 346 347 347 347
332 328 327 327 321 320 310 308 296 293 293 289 292 295 294 298 297 295 294 296 297 301 302 301 302 304 304 303 302 306 304 305 308 308 308 314 316 317 319 321 325 326 326 326 327 326 326 331 336 336 336 336 336 337 337 339 341 341 341 341 342 342 342 342 343 344 344 343 344 342 342 342 342 341 341 342 342 342 342 342 342 342 343 343 345 346 347 348 347 347 347 346 345 344 344 345 346
327 324 326 324 320 317 314 305 295 290 290 286 289 292 296 294 294 298 299 299 301 301 300 300 301 302 302 301 301 301 295 308 308 308 308 314 312 313 317 320 323 325 326 325 325 325 325 330 336 335 335 335 336 336 337 338 339 339 339 338 339 339 340 341 341 341 341 341 340 339 339 339 339 339 339 340 340 339 339 339 338 340 341 341 343 344 346 345 345 345 345 344 342 340 340 340 342
327 327 325 319 312 311 302 300 293 292 289 287 288 293 295 294 298 299 301 302 302 301 302 303 300 303 302 299 301 305 304 305 308 308 307 310 310 315 317 320 323 324 324 324 324 324 325 332 335 335 335 335 335 335 336 337 337 338 337 337 336 337 337 337 338 338 338 338 338 337 337 336 336 337 337 337 336 336 337 336 335 335 337 338 339 342 343 342 341 341 341 340 339 337 336 336 337
321 325 327 317 311 305 301 298 296 292 291 290 290 291 295 297 299 299 300 300 301 300 301 301 300 304 304 302 303 300 300 308 308 310 308 311 314 316 317 320 321 322 322 323 323 324 326 333 334 333 334 334 335 335 335 336 336 336 336 336 336 336 336 336 335 336 336 335 335 334 334 334 334 334 334 334 333 332 332 332 332 332 332 333 334 336 337 338 338 337 336 336 335 333 332 332 332
321 319 322 316 309 309 304 296 293 291 297 296 293 293 296 300 300 299 299 300 301 300 301 299 299 300 301 302 304 301 307 302 308 309 309 310 315 317 318 320 319 318 320 321 321 322 323 332 332 332 332 333 333 334 334 334 334 333 333 333 334 334 334 334 334 333 333 332 332 331 331 331 331 331 330 329 329 329 328 328 328 328 327 328 328 329 330 331 331 331 331 331 330 330 328 329 329
318 314 313 309 308 306 297 292 292 293 297 298 294 295 298 299 300 299 299 299 301 301 301 301 301 300 298 301 304 305 308 310 309 309 311 312 315 317 317 316 316 319 319 320 320 321 323 331 331 331 331 331 331 331 332 332 331 331 331 331 331 331 331 331 330 330 330 329 328 328 327 328 327 327 326 326 325 325 326 326 325 325 325 325 325 326 327 327 327 328 327 327 327 327 326 325 325
320 312 309 300 298 296 293 290 292 292 292 297 297 297 299 301 299 298 298 296 297 297 300 301 301 299 297 303 298 303 309 309 310 310 312 314 315 315 315 313 317 318 318 318 318 319 327 329 329 329 329 329 329 330 330 330 330 329 328 328 328 328 328 328 328 327 327 326 325 325 325 325 325 324 324 324 324 324 324 325 325 325 325 325 325 324 325 326 326 326 325 326 325 324 324 323 323
313 312 308 299 294 296 292 292 292 295 294 298 298 303 306 301 300 299 297 299 299 298 299 300 299 296 295 300 299 303 305 309 310 313 312 313 313 313 312 313 315 315 316 316 316 316 319 327 327 328 328 328 328 329 329 329 329 327 327 326 326 326 326 326 326 325 324 324 324 324 323 323 323 323 323 323 324 323 323 322 322 323 323 323 323 323 323 324 325 325 324 325 324 323 322 322 322
308 307 300 297 295 293 291 292 294 297 297 298 297 299 300 300 299 300 298 298 298 297 299 300 298 297 298 298 299 302 302 308 308 308 310 312 312 311 310 312 315 314 314 314 314 315 316 325 326 327 327 327 328 327 328 328 327 326 326 325 325 324 324 324 324 324 323 323 322 322 322 322 321 321 322 321 321 321 321 320 320 319 320 321 321 321 321 321 322 322 322 322 321 321 321 322 321
301 307 305 296 293 291 292 291 291 295 298 300 298 299 300 298 300 297 298 297 299 298 300 300 300 298 298 297 300 303 307 307 306 305 308 310 309 307 308 311 314 314 313 312 312 313 314 317 324 325 326 326 326 326 326 326 326 325 325 324 324 323 323 322 322 322 322 322 321 321 321 320 319 317 318 318 318 318 318 319 318 317 318 318 319 319 319 319 319 320 320 320 319 319 319 320 319
300 301 300 292 291 290 290 291 293 295 296 297 298 300 299 300 299 298 298 297 298 298 299 301 298 300 298 298 298 303 306 305 305 306 307 308 305 304 307 309 311 312 312 311 311 311 312 314 316 322 324 324 324 324 324 324 324 324 324 323 322 322 321 321 321 321 320 320 320 319 318 318 316 315 314 314 314 315 317 317 317 317 317 318 318 319 318 318 318 319 319 319 318 319 319 319 319
301 300 296 294 289 292 291 293 294 296 293 295 297 299 299 299 299 297 297 297 297 298 299 301 301 301 297 297 298 303 302 304 305 306 307 305 303 304 304 306 309 310 311 311 309 309 309 310 312 313 318 321 321 322 322 322 322 323 323 322 321 320 320 320 319 318 318 317 316 316 315 315 314 314 314 313 312 312 315 317 316 316 317 317 318 318 319 318 319 319 319 318 318 319 318 319 318
303 301 299 293 292 293 292 291 292 292 290 297 297 299 302 299 298 298 297 297 297 298 300 303 301 300 298 297 297 299 301 304 304 305 305 303 303 302 303 304 306 308 308 308 308 307 307 308 309 310 312 311 311 316 319 319 320 320 320 320 319 318 318 317 317 316 315 314 313 312 312 313 313 313 313 312 311 311 313 314 314 314 315 316 317 317 316 317 317 317 317 317 318 317 316 317 316
304 304 298 294 290 291 290 292 291 292 290 295 298 299 300 301 301 300 299 297 297 300 302 304 302 299 294 297 294 299 302 303 304 304 303 302 302 302 302 303 303 303 304 306 306 306 305 306 307 307 306 306 305 306 308 314 317 317 317 317 316 316 316 315 314 313 313 313 313 311 310 310 310 310 310 310 309 308 310 311 312 312 313 314 315 315 314 316 316 315 315 316 315 313 314 314 314
306 302 297 293 288 290 291 293 293 293 291 295 298 297 298 299 300 300 300 300 300 302 302 299 303 299 298 298 298 301 304 303 303 303 301 301 301 302 301 301 300 300 301 302 303 304 303 304 304 304 303 303 303 304 305 307 314 315 314 314 314 313 313 312 312 311 311 311 311 310 309 306 307 306 308 306 307 306 307 308 310 310 310 312 313 312 313 314 314 314 313 314 313 311 311 312 312
305 300 294 291 290 291 290 294 294 291 294 297 298 298 296 297 299 300 299 299 299 299 301 300 301 304 299 300 303 303 303 304 304 301 300 298 298 297 298 297 298 298 301 300 300 300 301 301 302 302 302 302 301 302 303 304 309 313 312 313 311 310 309 309 309 309 309 310 309 310 307 301 299 298 298 301 308 302 308 310 309 309 308 310 310 310 311 312 312 312 312 312 310 310 309 310 310
303 296 291 288 291 292 293 296 297 297 296 296 297 296 296 295 297 299 300 299 297 298 298 299 301 301 300 302 302 303 302 302 301 299 298 297 296 296 296 296 297 297 298 297 299 299 299 299 300 301 301 300 300 301 302 304 306 306 303 304 304 307 309 310 306 302 307 300 307 305 301 302 297 297 299 306 302 305 304 308 307 307 307 307 307 308 309 309 310 310 310 309 307 307 306 299 301
299 294 292 289 290 294 298 299 297 297 296 296 295 295 296 296 296 298 297 294 295 296 296 298 298 299 298 301 300 300 301 300 300 298 297 296 296 296 296 296 295 296 296 297 297 298 299 299 300 300 300 299 298 299 300 301 300 299 299 300 302 306 305 302 301 303 299 298 298 298 299 298 296 297 298 300 302 307 304 308 305 305 304 304 304 304 305 307 307 307 308 307 306 304 297 297 297
300 297 291 292 295 297 300 299 298 299 298 297 297 296 295 297 297 298 296 295 294 295 295 295 296 298 296 298 298 299 300 299 299 298 297 297 296 297 296 296 295 296 297 297 297 299 298 299 299 299 299 299 298 297 298 298 298 298 297 298 299 299 300 300 298 298 298 297 297 297 296 298 297 298 308 307 303 296 298 305 304 304 303 303 302 300 302 303 303 303 305 304 301 297 295 295 296
299 296 292 293 296 297 297 298 298 298 299 298 297 296 296 296 296 297 294 294 294 296 297 298 297 298 298 298 298 298 298 298 297 297 297 297 297 297 297 297 297 296 297 297 297 298 297 298 298 298 300 300 299 298 297 297 297 298 296 296 297 296 297 297 298 298 297 297 296 297 297 297 296 296 295 295 294 294 293 293 293 293 293 293 299 292 292 293 294 293 293 296 293 294 294 294 294
300 296 298 298 297 297 301 298 299 298 297 297 296 296 295 298 297 296 295 295 296 296 299 299 300 300 299 297 298 297 297 297 297 296 296 297 296 296 297 297 297 295 296 295 296 297 298 298 298 298 299 299 299 299 297 298 299 296 295 297 297 297 298 296 297 297 297 296 296 296 298 296 296 295 294 294 294 293 293 292 292 292 291 291 294 291 291 291 291 291 292 293 293 293 293 294 294
296 298 297 298 299 298 301 300 298 297 297 297 296 296 297 297 295 295 296 297 300 298 298 300 300 301 301 300 299 297 297 296 296 296 297 297 297 297 297 298 297 295 296 297 297 297 298 298 297 298 298 298 298 299 298 298 297 296 296 297 296 296 297 296 296 296 296 295 295 297 295 294 294 293 293 293 292 293 292 292 291 291 290 290 292 291 290 291 290 290 291 292 292 292 293 293 293
301 298 296 298 298 298 299 299 297 295 296 295 295 297 296 295 294 295 296 300 301 300 299 298 299 298 299 298 299 298 297 297 297 298 298 298 298 298 298 298 298 297 296 296 296 297 298 298 298 298 298 298 297 298 297 297 296 296 296 299 297 298 297 296 295 294 296 294 295 296 295 293 293 292 293 292 292 292 292 291 290 291 290 290 292 291 290 289 290 290 291 291 292 292 292 292 293
298 297 296 298 298 298 298 295 294 295 295 295 297 295 296 295 295 295 297 300 301 300 299 301 301 298 297 298 298 298 298 298 297 298 298 298 299 299 299 298 297 296 295 296 296 296 297 298 297 298 298 298 298 297 297 296 296 296 297 297 295 300 295 295 295 295 294 294 294 295 295 293 292 292 291 292 291 291 291 290 290 290 290 289 290 289 290 290 290 290 290 290 291 291 291 291 292
295 298 297 296 296 296 297 296 296 295 296 295 295 295 295 295 296 296 299 300 301 299 298 299 299 299 297 297 298 299 298 298 298 297 298 299 298 298 298 298 297 296 297 296 296 296 297 298 297 297 298 298 298 297 296 296 296 296 296 296 295 299 294 294 295 293 293 293 293 293 294 292 291 291 291 290 290 290 290 290 290 289 289 289 289 289 290 289 289 289 290 290 291 290 290 291 292
297 295 295 295 296 295 296 296 298 296 295 294 296 296 295 295 296 293 300 300 299 299 299 300 298 298 298 298 298 299 299 299 298 299 298 297 297 298 298 298 297 297 297 296 296 296 297 297 297 298 298 298 298 296 295 295 296 295 296 295 295 295 295 295 294 293 292 293 293 293 293 293 292 291 290 290 290 289 289 289 289 289 288 288 289 289 290 290 289 289 289 289 290 290 290 290 290
297 295 295 297 296 296 297 296 297 296 296 295 296 295 294 293 294 296 300 297 297 297 298 298 298 299 298 298 297 298 299 300 300 298 298 297 297 298 298 298 298 297 296 296 296 296 296 297 297 297 297 298 298 296 296 295 295 295 295 294 294 294 295 294 293 293 293 292 293 292 292 292 293 291 290 290 290 289 289 289 288 288 287 288 289 288 289 289 289 289 289 290 289 289 289 289 290
296 295 293 295 295 295 298 297 298 295 296 294 295 294 293 292 292 298 300 300 297 296 296 296 297 299 299 298 297 297 298 299 298 298 299 299 299 299 298 299 300 298 297 297 296 296 296 296 297 296 297 298 297 296 295 295 295 295 294 293 293 295 294 293 292 292 292 293 293 292 291 292 293 292 290 291 292 289 289 288 288 289 288 288 288 289 289 288 288 288 288 290 289 289 289 289 290
297 294 292 293 292 291 297 297 297 294 294 295 296 286 290 293 296 298 300 298 297 296 297 297 297 297 298 299 299 298 298 297 297 299 300 300 300 299 299 299 300 299 297 296 295 295 296 297 298 297 296 297 297 296 295 295 295 294 294 292 294 294 293 293 292 292 293 293 293 291 291 292 291 291 291 289 289 288 289 289 288 287 287 288 288 288 287 287 287 287 288 287 290 289 287 288 288
291 291 293 288 286 287 295 295 293 292 294 296 297 288 291 295 296 297 298 298 297 295 296 296 298 298 297 298 299 299 300 299 299 300 300 300 300 300 299 299 299 299 296 295 295 295 296 296 297 296 297 296 296 295 295 294 295 294 293 293 294 293 293 292 292 292 292 292 292 291 291 292 291 291 290 289 288 288 288 287 287 287 287 287 286 287 287 287 287 287 288 287 286 287 287 288 288
291 289 285 285 287 288 294 294 294 293 294 294 295 287 291 295 297 298 295 296 295 295 296 296 296 297 298 298 298 299 300 300 299 300 300 300 300 300 299 299 299 299 297 296 296 295 295 295 296 295 295 295 295 295 294 294 295 294 293 295 293 293 292 292 292 292 292 291 291 291 290 291 290 290 290 289 288 287 287 287 287 288 287 287 287 287 287 286 286 287 287 287 286 286 288 286 287
289 290 287 286 285 288 291 293 293 296 292 292 295 289 290 292 295 297 296 295 294 294 295 296 296 296 297 297 298 299 299 299 298 299 299 300 300 300 300 299 299 300 299 296 296 294 294 294 296 294 294 294 294 294 293 293 293 293 293 294 293 293 292 291 291 291 291 291 291 290 290 291 290 290 289 289 288 288 287 287 286 287 287 286 286 285 285 287 286 288 286 288 287 286 285 285 286
286 287 285 287 286 287 287 291 293 292 294 290 292 290 292 296 293 292 292 294 293 293 295 296 297 296 296 297 297 298 299 299 299 299 298 299 300 300 300 301 300 300 299 297 296 295 294 294 294 294 294 294 294 294 293 293 293 293 293 292 293 292 291 291 291 291 291 291 290 290 290 290 290 289 289 288 287 288 287 287 287 287 287 286 285 285 285 286 285 286 285 286 286 285 284 284 285
285 285 284 287 288 289 290 289 291 292 291 290 290 289 291 294 295 295 296 296 293 294 295 296 296 296 296 296 297 297 298 298 299 300 299 299 299 300 300 299 299 299 299 296 295 295 294 293 293 294 294 293 293 293 293 292 292 291 291 291 292 291 290 290 291 290 290 290 290 290 290 290 290 289 289 288 287 287 286 287 287 287 286 285 285 284 284 287 286 285 285 285 286 286 285 285 285
287 288 287 286 285 288 289 293 292 293 289 289 289 289 291 292 294 295 296 296 295 294 294 295 296 296 297 297 298 297 297 298 300 299 299 299 299 300 299 298 299 299 298 296 295 294 293 293 292 293 293 293 293 293 292 291 291 291 290 290 290 290 290 290 290 290 289 289 290 290 289 289 289 289 288 288 287 287 286 286 286 286 286 285 285 284 283 283 284 284 285 285 284 285 287 285 285
291 289 287 288 288 289 293 294 293 291 290 289 291 291 291 293 294 295 296 295 294 294 294 294 295 297 298 298 298 299 298 299 302 298 299 299 299 299 298 297 297 297 296 295 294 293 293 293 292 292 293 293 293 292 291 291 290 289 289 290 290 290 290 289 289 289 289 289 290 290 289 289 289 288 288 287 286 288 286 285 286 285 286 286 285 285 284 284 285 285 285 285 285 283 284 285 284
291 290 288 288 287 288 293 294 294 291 290 288 290 291 291 293 294 295 294 291 292 294 295 294 295 296 297 297 298 298 299 298 297 296 296 296 297 297 295 296 295 294 294 294 294 293 293 292 292 292 292 292 293 293 292 292 291 291 291 290 290 290 289 289 288 288 288 289 290 289 289 288 288 288 288 287 287 286 285 285 285 285 285 285 285 285 284 287 285 284 284 282 284 284 283 284 286
290 289 288 286 288 291 293 293 294 291 289 289 291 288 290 292 293 294 294 293 295 296 296 297 297 296 297 297 298 298 298 297 294 295 295 295 296 295 295 295 295 296 294 294 293 292 292 292 292 292 292 292 292 293 292 291 291 291 291 289 290 288 288 289 288 288 289 288 288 289 288 288 288 287 287 287 286 286 285 285 285 285 285 286 284 283 283 283 283 283 283 283 282 282 284 286 284
288 288 286 286 289 287 287 289 289 289 290 284 283 286 288 291 293 293 295 294 295 297 297 297 298 297 297 298 298 299 298 296 295 294 294 294 295 294 293 293 294 293 293 293 292 292 292 292 292 292 292 292 292 292 292 291 291 289 288 289 289 287 287 288 287 287 287 287 287 288 288 288 287 287 287 287 287 286 285 285 285 284 285 285 283 283 282 282 283 283 283 284 283 281 281 281 285
290 290 289 288 288 290 289 289 288 288 288 288 287 287 288 290 291 293 295 296 295 297 297 297 297 297 298 299 298 299 298 298 294 292 292 292 293 293 293 293 293 292 292 292 292 292 292 292 292 292 292 292 292 292 292 290 290 288 288 288 287 287 287 286 286 285 286 287 287 287 287 287 287 286 286 286 286 285 285 284 284 284 284 284 284 283 282 283 283 283 283 283 282 282 281 280 282
289 290 290 291 291 290 290 289 288 285 284 287 288 283 285 288 291 292 293 290 290 293 293 294 295 296 297 296 297 298 298 297 296 294 294 293 294 293 290 291 292 292 292 293 293 293 292 292 292 292 292 292 291 291 291 290 290 289 287 286 285 285 285 285 285 285 285 286 287 287 287 287 287 286 286 286 285 285 284 284 284 284 283 283 284 283 283 282 282 282 282 282 282 282 281 281 280
288 286 290 292 290 289 286 286 286 280 281 287 287 280 282 284 286 289 289 289 291 291 292 294 294 295 296 296 297 296 296 295 293 293 293 292 292 291 290 291 292 291 292 292 292 292 292 292 292 291 291 291 291 291 291 290 289 289 288 288 287 287 286 286 287 287 287 287 287 286 286 286 286 286 285 285 285 285 284 284 284 283 283 283 284 283 282 282 282 282 283 282 282 285 282 280 280
287 287 288 288 288 287 287 287 287 285 283 285 288 282 281 284 286 289 290 290 291 291 292 293 294 295 295 296 297 296 295 295 295 293 293 293 292 292 291 291 291 292 292 291 292 292 291 291 291 291 291 291 291 291 290 290 289 289 288 288 288 287 287 286 287 287 287 286 286 286 285 285 285 285 285 284 284 284 284 283 283 283 283 283 283 282 282 282 283 283 283 283 282 282 281 280 279
288 287 289 289 289 287 287 286 283 281 281 282 282 284 281 282 285 290 290 288 289 290 292 294 295 295 296 296 297 296 296 295 295 294 292 292 292 292 292 291 291 290 290 291 291 291 291 291 291 290 290 290 290 290 290 290 290 289 288 288 287 287 287 286 286 287 286 286 285 285 285 285 285 285 284 284 283 284 284 283 283 283 282 282 284 282 282 282 281 281 281 281 281 281 281 281 280
288 287 287 287 285 285 287 284 284 280 277 280 280 284 281 283 288 285 286 287 288 289 291 294 295 296 296 297 297 297 296 293 295 295 294 293 293 292 292 290 289 290 291 291 291 291 290 290 290 290 289 289 289 290 290 289 289 289 288 287 287 286 286 284 285 285 285 285 285 284 284 284 284 284 284 283 283 283 283 283 282 282 282 282 283 281 281 281 281 281 281 280 280 280 281 281 280
289 288 288 282 281 281 279 280 279 280 277 280 283 284 284 281 284 285 285 286 288 290 290 292 293 294 295 296 296 297 297 294 294 294 293 293 291 291 289 289 289 288 288 289 289 290 289 290 289 289 289 289 289 289 289 289 289 289 288 287 287 286 285 284 284 284 284 284 284 284 284 284 284 283 283 283 283 283 282 283 282 281 281 283 282 280 280 280 280 280 281 280 281 280 280 280 282
289 286 282 282 283 277 279 276 279 275 278 280 284 284 285 279 280 285 289 288 290 292 290 292 292 294 295 296 297 297 296 295 294 292 290 290 289 288 287 288 288 288 288 288 288 289 289 289 289 289 288 288 288 288 288 288 288 288 288 287 287 287 285 285 284 284 284 284 283 283 283 283 283 283 282 282 282 282 282 281 281 281 281 281 280 280 280 280 280 280 279 279 279 279 279 280 279
286 281 283 280 275 276 272 273 272 272 278 279 282 284 280 282 287 285 286 287 287 290 292 293 293 293 294 294 296 296 294 292 294 292 291 290 290 289 288 288 287 287 288 288 288 289 289 289 288 288 288 288 287 287 287 288 287 287 287 287 287 287 286 285 285 284 284 284 283 283 282 282 282 281 281 281 282 282 282 281 281 280 280 280 280 279 279 280 280 279 279 279 278 278 278 278 278
283 284 280 277 273 271 270 269 270 273 278 280 281 283 283 286 283 291 292 294 292 291 292 292 292 293 293 294 295 295 292 292 293 293 292 291 291 290 289 288 288 288 288 288 288 288 288 289 288 288 288 287 287 286 287 287 287 287 287 286 286 286 285 285 285 285 284 284 284 283 283 283 282 282 282 282 282 282 281 281 281 280 280 280 279 279 279 279 279 278 278 278 277 278 278 278 277
286 284 286 283 279 270 269 273 277 278 280 277 281 279 276 276 283 288 294 295 296 294 293 293 292 292 293 293 292 291 291 289 291 292 291 291 290 289 289 289 288 288 287 288 288 288 288 288 287 287 287 286 286 286 286 286 287 287 286 286 286 285 285 285 285 285 284 284 283 283 283 282 282 282 282 282 282 281 281 281 280 280 279 279 279 279 280 279 279 279 279 278 277 277 277 278 277
282 282 285 280 280 281 281 283 278 277 275 277 275 280 277 284 288 288 289 289 291 292 292 291 291 291 291 291 292 293 290 290 289 289 289 288 288 288 288 287 287 287 286 287 287 288 288 288 288 287 287 287 286 286 286 287 287 286 286 285 285 285 285 285 284 284 284 284 283 283 282 282 282 281 281 281 281 281 280 280 280 279 279 279 279 278 278 278 278 278 277 277 276 279 277 276 277
282 285 280 285 285 286 281 281 280 278 276 279 279 280 284 286 290 289 293 290 290 289 289 289 291 293 293 292 295 291 290 288 288 289 289 289 286 286 287 287 286 286 286 287 288 288 288 288 287 287 287 287 286 286 287 286 286 285 285 285 285 284 285 284 284 284 283 283 283 282 282 281 281 281 281 281 281 280 280 280 279 278 278 278 278 278 278 278 277 277 277 276 276 276 277 276 276
283 279 283 286 285 283 282 274 273 274 274 279 283 280 282 280 280 284 286 287 286 287 290 291 292 292 291 293 294 290 291 288 287 287 287 288 288 288 287 286 286 287 287 287 287 288 288 288 287 287 287 286 286 286 286 286 285 285 285 284 285 285 285 284 284 283 283 282 282 281 281 280 280 280 281 281 280 279 279 280 278 278 278 277 277 277 277 277 277 277 276 276 275 275 275 275 276
284 281 286 285 278 278 280 276 276 276 276 278 282 282 281 282 284 285 287 285 288 290 290 290 289 289 290 292 291 286 287 287 288 288 288 288 288 288 287 287 287 287 287 286 286 286 286 287 287 287 287 287 287 286 286 286 286 286 286 285 284 284 284 284 283 283 282 282 281 281 280 280 280 280 280 279 279 278 278 278 278 277 277 277 277 277 277 276 276 276 275 275 275 275 275 275 275
287 286 284 283 281 277 276 282 278 280 278 279 279 283 280 287 282 286 284 286 287 287 286 287 289 290 291 291 291 289 286 287 287 288 289 289 289 288 288 287 287 287 286 286 285 285 285 287 286 286 287 286 285 285 286 285 285 285 285 284 284 284 284 284 283 282 282 282 281 280 280 279 279 279 279 279 278 278 278 277 277 277 276 276 276 276 276 276 275 275 275 275 274 274 274 274 274
283 284 280 282 280 281 281 282 281 281 279 279 277 277 282 288 286 288 287 287 284 286 287 287 288 289 289 288 288 288 287 288 288 288 288 288 288 288 288 287 287 285 284 284 284 285 286 285 286 286 286 285 285 285 285 285 285 285 284 283 283 283 283 283 282 282 281 281 280 280 280 279 279 279 278 278 277 277 277 277 276 276 276 276 275 275 275 275 275 274 274 274 273 273 273 273 273
287 287 285 286 282 279 278 278 285 280 280 277 277 277 284 291 289 288 286 286 288 288 290 288 289 288 287 288 286 286 287 287 287 287 287 287 287 287 288 285 283 284 284 284 285 285 284 285 286 286 285 285 285 286 285 286 285 285 284 284 283 283 282 282 281 281 281 280 280 280 279 278 278 278 278 277 277 277 276 276 276 275 275 275 275 275 274 274 274 273 272 274 273 272 272 272 272
Wind_Speed
5 5 5 4 1 1 2 2 1 2 2 4 3 1 3 0 1 1 1 0 1 1 0 2 4 4 1 2 7 5 0 3 3 5 4 2 3 5 3 5 6 7 8 4 4 4 4 7 11 10 9 9 9 9 9 9 8 10 10 10 10 10 10 10 10 10 11 12 13 14 13 12 12 12 12 12 12 13 13 12 11 11 10 11 11 10 10 10 10 9 10 11 11 12 12 11 11
4 3 5 3 3 2 0 1 1 2 2 3 8 1 3 1 1 1 3 2 1 1 1 4 3 5 6 7 5 5 2 2 0 2 1 1 3 3 4 3 7 10 7 5 4 4 3 5 10 10 10 9 9 9 9 9 9 10 11 10 10 10 10 10 11 12 12 13 13 12 12 11 11 11 10 10 12 12 12 12 11 11 11 10 11 12 13 14 15 14 14 14 14 14 14 13 13
3 4 5 4 1 2 1 3 0 0 1 3 7 2 1 1 1 1 0 3 3 3 3 3 2 2 2 4 2 1 2 2 5 3 3 5 10 6 5 4 5 8 8 4 5 4 3 4 8 10 11 10 10 9 9 9 10 10 10 10 9 9 9 11 11 11 11 12 11 10 10 9 9 10 10 11 12 12 12 12 12 12 12 11 11 12 15 14 15 15 15 15 14 14 14 13 13
3 0 0 2 1 2 1 1 2 1 2 5 4 3 3 5 3 4 1 1 3 1 1 1 2 1 1 1 1 5 3 2 3 7 5 8 6 8 7 5 7 9 7 5 5 4 3 5 9 11 11 11 10 10 10 10 11 11 11 10 10 9 9 9 10 10 10 11 10 10 10 10 10 10 11 11 12 12 12 12 12 12 12 12 13 14 14 14 14 14 14 13 12 12 13 12 12
2 4 0 1 3 1 1 2 2 2 4 3 1 5 2 3 6 4 2 2 0 2 1 2 2 1 0 1 0 1 4 1 3 4 4 3 4 8 7 6 6 9 8 6 6 5 4 8 10 11 12 12 11 11 11 11 11 12 11 11 10 10 10 10 10 10 10 11 11 11 11 11 11 11 12 12 12 12 12 12 12 12 12 12 12 12 12 13 13 12 12 13 13 13 12 12 12
3 3 2 2 0 2 2 2 3 3 9 2 2 3 3 7 8 4 2 3 0 2 1 3 2 1 0 0 1 3 5 3 5 3 6 7 12 10 8 6 7 7 6 6 6 5 5 9 11 12 12 12 12 11 11 11 12 12 12 12 12 11 11 11 11 12 12 13 13 13 13 13 13 13 13 13 13 13 12 12 12 13 13 13 13 12 12 12 12 12 12 12 13 13 13 13 12
2 4 2 3 1 2 3 2 6 5 10 5 3 2 7 4 7 8 3 2 2 2 2 2 3 2 1 1 1 0 2 1 6 3 6 10 11 11 10 8 8 9 8 6 5 5 6 10 12 13 12 12 12 12 11 12 12 12 12 12 12 11 12 12 12 12 12 13 13 13 13 13 13 13 13 13 13 13 13 13 13 13 13 13 13 13 13 13 13 13 13 13 14 14 14 14 13
0 2 0 2 1 1 1 3 6 4 6 4 2 3 6 7 6 4 5 2 1 2 1 1 2 2 4 3 2 1 4 3 1 7 9 12 10 9 9 8 11 9 8 6 5 4 8 11 13 13 13 12 12 12 12 12 12 12 12 12 12 12 12 12 12 12 12 13 13 13 13 13 13 13 13 13 13 13 13 13 13 13 13 13 13 13 13 13 13 14 14 14 15 15 15 15 15
2 1 1 5 1 1 2 4 6 3 6 3 2 3 6 10 7 6 4 1 1 0 2 1 4 4 3 2 2 1 1 1 5 11 12 11 11 10 7 9 11 9 9 7 5 4 4 10 12 13 13 13 13 13 13 13 13 13 13 13 12 12 13 13 13 12 12 13 13 13 13 13 13 13 14 14 14 13 13 13 13 13 13 13 13 13 13 13 13 13 14 14 14 15 15 15 15
2 2 1 1 2 3 2 7 1 6 4 6 5 4 6 5 4 6 6 1 4 4 4 4 3 2 0 3 1 1 2 4 7 7 8 11 10 7 7 8 11 12 9 8 5 5 4 9 11 12 13 13 13 13 13 14 14 14 13 13 13 13 13 13 13 13 13 13 13 13 13 13 13 14 14 14 14 13 13 13 13 13 13 13 13 13 13 13 13 13 13 13 13 13 13 13 13
1 1 2 1 1 2 3 7 4 7 2 1 3 4 7 5 7 3 6 4 4 5 1 6 1 4 1 3 2 2 3 8 11 12 9 9 7 6 7 8 11 11 11 9 7 5 5 5 11 12 13 14 14 14 14 14 14 14 14 14 13 14 14 13 13 14 13 13 13 13 13 13 14 14 14 14 14 13 13 13 13 13 14 14 13 13 13 13 13 13 14 14 13 13 13 12 12
1 0 1 1 3 3 5 3 5 8 5 2 1 1 3 5 3 2 3 3 2 3 6 8 3 6 2 1 2 0 8 8 8 8 8 7 6 5 8 7 10 10 11 10 7 6 5 5 6 10 12 12 13 14 14 14 15 14 14 14 13 14 14 14 14 14 14 13 13 13 13 13 14 14 14 14 14 14 14 14 14 15 15 15 15 15 15 15 15 15 15 15 14 14 14 13 13
1 0 1 1 3 1 3 3 7 4 3 2 3 1 0 4 3 5 3 4 5 5 2 9 4 5 3 4 2 0 7 9 7 8 9 7 6 7 6 7 10 11 10 10 9 7 7 6 6 5 7 10 10 11 12 13 14 14 14 13 13 13 14 14 14 14 14 14 13 13 13 13 13 13 14 14 15 14 14 14 14 15 15 15 15 15 15 16 16 16 16 16 16 16 16 15 15
1 1 1 3 0 1 3 4 4 4 4 1 1 1 1 2 3 4 3 2 5 6 4 10 3 4 3 2 1 5 8 7 8 8 7 7 6 7 7 7 8 10 9 10 10 9 7 6 6 5 6 5 4 7 10 13 13 14 13 13 12 12 13 14 14 14 14 14 13 13 12 12 12 13 13 14 14 14 13 13 14 14 15 15 15 15 16 16 16 16 17 17 17 17 17 17 17
1 0 0 0 3 1 3 1 4 3 4 1 2 2 0 2 1 1 3 4 6 2 2 2 3 4 6 8 6 8 11 10 10 8 7 6 6 6 6 7 7 7 9 9 9 9 8 7 7 5 5 5 5 5 5 7 12 13 13 12 12 12 12 13 13 13 13 13 13 13 12 12 11 11 11 12 13 13 11 11 12 13 13 13 12 13 13 13 13 14 14 15 15 16 17 18 18
1 2 1 0 3 0 6 2 3 3 5 4 4 4 2 2 0 1 2 2 1 2 2 5 2 4 2 6 4 7 11 12 11 9 7 7 5 5 5 5 6 6 7 8 9 8 8 8 7 7 6 6 5 5 6 5 9 11 12 12 12 12 12 12 12 12 11 10 11 10 11 7 7 5 8 6 9 10 9 6 10 11 12 11 11 11 12 12 12 12 13 14 15 16 16 16 16
2 3 1 1 7 1 5 1 0 4 2 2 1 1 4 1 2 0 0 1 1 2 1 2 5 0 2 2 2 8 11 12 11 9 8 7 6 6 4 5 6 5 4 7 8 9 9 10 10 8 7 7 7 6 6 6 6 10 9 10 10 11 11 11 11 9 7 7 7 8 8 5 4 4 3 3 5 2 4 3 9 10 11 11 12 12 12 12 12 13 13 14 15 15 14 12 11
3 1 2 4 5 2 4 3 2 2 2 3 2 4 3 1 1 1 1 2 2 1 3 3 3 2 1 1 5 10 13 15 12 13 10 9 6 6 7 6 7 9 8 7 7 8 10 9 11 10 8 8 8 6 5 5 5 7 6 5 4 6 8 8 7 5 6 4 8 7 5 4 5 4 3 4 3 2 1 5 10 11 12 12 12 13 13 13 13 13 14 14 15 14 12 6 6
3 1 2 7 4 7 3 2 4 0 3 4 5 4 5 6 4 1 1 3 3 5 5 3 5 4 4 6 9 12 13 12 13 13 14 14 12 13 11 8 8 5 8 7 8 10 10 9 9 10 9 9 9 7 6 6 6 5 5 5 4 6 5 5 5 5 4 4 6 7 7 6 5 4 3 3 3 4 5 10 10 11 11 12 12 13 13 14 14 13 14 14 13 11 6 6 6
4 3 5 7 6 4 7 4 3 0 3 1 2 3 4 3 4 1 3 6 2 9 7 3 7 11 6 5 8 11 12 13 13 14 14 15 14 14 11 11 10 11 11 11 11 7 9 10 10 9 9 10 9 7 7 7 6 6 6 5 5 5 5 4 4 4 4 5 6 6 6 5 4 5 5 7 6 4 5 7 9 9 9 9 10 6 9 11 12 11 12 11 7 5 5 5 5
2 3 5 6 4 1 6 4 3 0 1 1 1 1 1 4 4 4 2 2 10 11 9 11 13 15 10 10 10 10 12 13 12 12 13 14 13 10 13 15 15 14 10 7 5 9 10 10 9 9 9 10 9 8 8 8 7 6 6 6 6 5 6 5 5 4 4 5 6 6 5 5 5 6 5 6 5 4 4 4 4 4 3 4 5 4 5 4 5 5 5 6 5 6 6 6 6
3 9 8 8 5 5 10 4 4 1 2 0 1 2 5 1 1 4 5 9 15 8 9 11 11 10 9 11 12 11 13 14 15 14 16 16 17 15 11 8 5 4 6 9 11 10 11 11 10 9 9 9 9 9 9 8 8 8 7 7 7 6 6 5 5 5 4 5 5 5 5 6 6 5 5 5 5 4 4 3 3 4 3 4 3 5 5 4 5 5 4 5 5 5 5 5 5
6 5 5 7 7 5 4 4 3 2 1 1 1 4 0 2 4 4 8 15 16 3 6 10 11 11 10 15 14 12 13 15 16 18 17 15 15 15 14 12 12 11 10 13 12 10 10 10 10 10 10 9 9 8 8 8 8 8 8 8 8 7 6 6 6 5 5 5 5 4 7 6 6 6 6 5 5 4 4 3 3 3 4 4 4 5 5 5 5 5 5 5 5 5 5 5 5
8 10 1 6 4 8 7 8 9 6 7 5 4 1 2 1 7 3 9 16 18 7 4 5 5 4 5 10 14 18 18 19 19 20 20 21 21 21 18 16 14 10 9 11 11 11 11 13 11 11 11 11 9 9 9 8 8 8 8 8 8 8 7 7 6 6 5 5 4 5 6 6 7 7 5 6 5 4 4 3 3 4 5 5 5 5 6 5 5 5 4 4 5 5 6 6 6
6 8 4 6 5 7 6 5 3 5 7 5 2 4 8 6 7 5 16 15 13 9 5 9 9 4 5 11 15 15 15 14 15 15 11 11 12 11 8 8 8 9 12 12 11 11 13 12 12 13 11 12 10 10 10 8 8 8 8 8 8 8 7 7 7 6 6 5 4 4 6 6 6 6 6 5 5 4 4 4 3 4 4 4 5 5 4 4 3 3 3 3 4 5 5 6 6
5 8 2 4 5 5 6 8 8 7 5 4 3 11 9 5 5 12 25 20 14 6 6 8 8 10 9 11 15 16 16 17 17 13 18 16 9 10 12 12 10 13 16 12 12 13 12 13 14 15 14 13 11 10 9 9 9 9 9 8 8 7 7 7 6 6 6 5 5 4 5 6 6 6 5 4 6 5 4 3 4 4 5 3 4 5 3 3 3 3 4 4 5 6 6 6 5
1 4 4 6 8 6 6 7 10 5 5 5 8 12 9 1 5 12 18 12 5 9 12 11 8 10 12 10 11 14 17 18 20 18 10 8 11 14 14 13 13 16 12 13 13 12 12 13 14 14 13 12 10 10 9 10 8 9 9 8 8 8 7 7 7 6 6 6 5 4 5 5 6 5 6 5 5 5 4 4 4 4 4 4 3 3 2 3 3 4 4 5 5 6 5 5 6
4 1 8 12 7 7 11 9 15 3 8 8 9 12 5 2 4 17 26 3 4 7 10 10 10 12 11 12 11 11 14 16 15 11 17 15 15 15 15 15 18 13 14 16 13 10 12 15 15 14 14 13 12 11 9 10 9 9 9 8 8 7 8 7 7 7 6 6 4 4 5 6 5 5 5 5 6 5 5 6 4 4 3 3 2 3 4 4 4 3 4 3 3 4 4 5 5
2 2 6 13 7 10 15 12 13 5 9 6 6 2 11 4 10 25 23 10 4 6 8 8 10 12 12 11 11 9 14 15 10 12 18 18 16 14 18 17 16 14 11 13 12 12 15 14 14 14 13 13 13 12 11 9 8 9 9 8 7 7 8 7 7 7 7 6 5 5 5 6 5 6 6 5 5 6 5 5 5 4 3 3 3 3 4 3 4 4 4 3 4 4 4 5 4
2 1 3 12 9 8 21 5 10 6 4 11 8 5 10 14 22 22 20 8 6 6 13 13 10 10 10 10 11 13 12 9 11 17 17 15 13 15 17 15 15 14 10 9 11 15 13 10 10 10 12 14 14 11 9 9 9 8 8 8 7 8 7 7 7 7 7 7 6 5 6 6 6 6 6 5 6 6 5 6 6 4 3 3 3 3 3 2 3 3 3 4 4 4 4 4 5
5 2 1 7 6 9 11 3 0 3 3 13 8 6 13 15 14 14 15 10 10 12 14 13 12 12 10 10 11 13 16 14 18 18 16 15 13 12 15 11 13 13 8 10 16 17 14 12 11 10 12 13 12 11 11 10 8 8 8 8 8 8 7 7 7 7 7 7 7 7 6 6 6 6 5 6 6 5 6 6 5 4 3 3 3 1 2 1 2 2 2 4 3 3 3 3 4
2 2 8 3 7 10 14 3 2 5 1 5 8 5 15 20 15 10 6 8 8 12 14 14 12 12 12 11 12 13 16 13 14 15 16 14 13 12 13 14 14 14 14 15 14 12 14 13 13 12 12 13 12 12 9 10 10 8 8 8 8 8 8 7 8 8 8 7 7 6 6 6 6 6 5 5 6 6 6 7 6 4 4 3 2 1 1 2 2 2 3 3 3 3 4 5 4
2 9 9 10 4 9 10 6 6 12 4 4 14 10 7 13 12 14 8 7 8 11 12 13 12 13 12 12 12 13 14 13 10 14 12 12 12 12 13 14 15 18 16 13 14 14 14 13 14 14 15 15 13 11 9 8 9 8 8 9 9 8 8 8 7 7 7 7 7 6 6 6 6 6 5 5 6 6 6 6 6 5 4 3 3 1 1 1 2 2 2 2 2 2 3 5 5
8 2 7 6 7 4 6 5 1 4 11 7 10 8 14 16 5 6 6 2 6 7 12 13 13 11 12 12 12 14 14 15 15 15 13 12 12 14 14 14 16 15 13 14 14 16 16 14 14 13 12 13 11 11 10 9 9 8 7 7 7 8 7 7 7 8 8 8 7 7 7 7 6 6 6 5 6 5 6 6 6 6 5 4 4 2 1 1 2 3 1 0 2 3 4 4 6
6 3 5 9 7 9 15 7 2 5 2 7 7 11 16 18 15 12 13 9 4 8 11 12 13 12 12 11 13 14 15 16 18 15 10 12 13 13 13 12 12 13 12 14 14 13 12 11 10 12 13 12 11 11 9 9 8 6 6 7 7 6 6 7 8 8 8 8 8 8 8 7 7 7 6 6 7 6 6 6 6 6 5 5 4 3 1 1 3 3 2 0 0 1 2 3 5
4 7 7 5 6 8 10 11 4 9 5 6 9 12 18 21 20 18 16 12 11 11 8 11 12 11 13 14 14 12 13 17 18 8 9 11 12 13 12 11 12 12 12 13 14 13 13 12 10 10 12 12 10 10 10 9 8 9 9 6 6 6 7 7 7 8 7 8 8 9 8 7 7 7 7 6 6 6 6 6 6 5 5 5 4 3 3 3 3 3 1 1 3 0 0 3 3
8 6 6 12 11 11 13 14 6 5 4 10 15 17 17 20 18 18 16 10 9 12 13 14 13 14 15 18 17 16 16 19 13 6 11 12 13 13 11 10 11 11 12 14 15 15 16 16 15 16 13 13 13 12 11 12 12 8 7 10 11 9 9 8 7 7 8 7 9 9 8 8 8 7 7 7 7 7 6 6 6 5 5 5 5 5 5 5 4 3 1 1 2 3 1 1 3
11 11 10 13 7 14 15 12 3 4 5 6 10 15 17 19 19 16 9 5 11 14 15 14 15 14 16 19 19 19 19 10 7 5 5 6 8 9 9 10 11 13 11 14 17 16 15 15 17 15 12 13 14 14 13 12 12 13 13 13 10 9 9 10 9 8 8 7 9 8 8 8 8 7 7 6 7 7 7 7 6 6 6 6 5 5 4 4 3 2 2 2 1 1 2 2 3
10 11 11 10 10 13 14 10 10 5 5 14 11 14 15 17 18 15 11 11 12 13 15 18 15 15 16 17 18 19 16 14 7 5 3 7 9 10 11 11 13 17 16 17 15 14 14 14 14 14 13 14 13 13 12 12 9 7 8 7 9 6 3 4 5 5 6 8 8 8 7 8 8 7 7 7 7 7 7 7 7 6 6 6 5 5 4 4 4 3 3 2 2 1 1 1 1
8 9 8 13 9 5 14 5 2 2 8 6 4 10 10 10 12 16 14 11 13 16 17 18 15 15 19 20 19 17 15 12 10 7 8 9 11 11 10 11 12 10 11 11 13 16 13 14 14 14 14 13 13 13 12 9 8 5 4 6 5 4 5 5 5 5 6 7 8 8 7 8 8 8 8 7 7 7 7 7 6 6 6 5 6 5 4 4 4 3 3 2 1 2 2 2 1
11 14 13 10 11 14 13 11 2 2 5 4 8 12 14 11 17 16 15 14 15 16 15 16 15 14 18 17 14 16 18 17 9 6 6 7 9 12 15 12 10 13 14 15 15 16 13 16 16 16 15 15 13 13 12 9 9 7 7 6 5 6 5 5 6 6 8 8 7 9 11 9 9 8 8 8 8 8 7 7 6 6 6 5 5 5 4 5 4 3 4 3 2 1 2 1 1
15 14 11 17 15 14 13 10 7 5 7 4 2 9 14 9 19 21 11 3 8 13 13 16 18 16 16 17 19 18 14 10 11 12 13 13 13 9 6 9 13 12 14 15 15 16 15 14 14 14 12 12 13 14 13 12 12 12 11 11 11 8 9 10 13 15 13 13 14 9 7 9 9 8 8 8 7 7 7 7 6 6 5 6 6 5 4 4 4 4 4 4 2 3 3 3 2
14 6 13 15 12 10 7 7 3 7 8 3 2 4 18 5 6 8 7 7 12 7 9 15 14 14 14 16 15 13 13 8 6 6 7 9 9 10 10 12 14 15 14 12 12 14 15 15 16 16 14 12 12 13 14 12 12 12 16 16 14 15 15 12 9 8 10 8 7 10 9 8 9 9 8 8 7 7 7 7 7 6 6 6 4 5 5 5 5 4 3 3 3 3 3 3 4
12 0 6 6 6 6 7 5 7 9 2 4 1 2 7 23 8 7 12 12 12 11 11 12 13 14 14 14 15 13 11 8 10 11 12 13 14 16 17 16 14 16 13 12 13 13 15 15 15 15 12 12 12 13 15 15 15 14 13 13 13 13 14 14 13 11 8 7 9 9 8 8 8 8 9 8 8 7 7 7 7 6 6 5 5 6 6 5 5 4 3 3 3 3 3 3 3
4 0 5 2 5 4 1 1 3 3 5 11 7 4 4 14 6 12 13 10 9 10 12 15 15 15 14 16 15 14 14 9 10 11 13 14 15 15 13 14 11 8 11 14 14 13 13 13 14 13 13 12 12 15 16 15 14 15 15 12 12 11 10 7 7 7 8 8 10 8 8 8 8 8 8 8 7 7 7 7 7 6 6 6 5 5 4 5 5 4 3 2 2 1 2 2 1
3 3 5 4 3 3 1 1 1 3 2 17 6 6 6 21 14 5 1 7 10 11 14 16 16 15 16 16 14 14 13 6 9 12 14 14 14 13 11 6 7 11 10 9 9 10 11 11 13 14 14 13 13 15 16 16 14 13 14 15 15 12 9 6 8 9 9 9 10 10 9 9 8 8 8 7 7 7 7 6 6 7 6 6 5 5 5 4 4 4 3 2 2 1 1 2 2
2 2 1 5 5 2 2 4 2 4 9 11 12 9 8 15 6 10 9 8 11 11 6 8 7 8 11 11 12 14 13 6 8 9 8 9 7 7 7 12 11 6 6 8 9 10 10 12 13 15 16 13 13 15 16 17 15 14 15 16 16 15 13 11 11 10 9 10 11 10 10 9 8 9 7 7 7 7 6 6 6 6 5 5 5 5 4 4 4 4 3 2 2 3 3 2 2
1 1 2 5 7 5 2 3 3 3 15 3 13 14 13 12 3 2 6 1 7 12 9 10 9 11 13 11 13 14 12 7 6 5 6 6 6 6 6 8 10 10 8 10 9 10 11 12 13 15 13 14 14 14 15 16 15 15 13 14 16 15 16 14 15 15 14 14 13 12 9 8 8 7 7 7 7 8 7 7 6 6 6 5 5 4 4 4 4 4 3 3 3 3 2 2 2
4 4 5 2 6 5 3 3 2 6 13 2 7 10 1 23 10 2 6 7 3 6 9 11 11 11 11 10 14 12 7 5 7 8 7 8 11 12 11 10 9 12 14 13 13 12 11 12 14 16 17 15 15 14 16 17 15 16 16 16 14 13 15 15 15 14 13 14 12 12 11 11 9 8 8 9 9 10 9 8 8 8 6 6 5 4 4 4 4 4 4 3 3 2 2 2 2
7 8 6 5 4 3 5 4 4 6 6 5 7 3 13 10 3 10 13 14 12 10 10 9 10 11 11 11 12 11 5 6 8 9 10 12 12 12 12 12 13 12 12 14 13 12 12 12 14 16 17 14 13 13 15 15 18 17 15 14 13 12 14 14 14 14 14 12 12 14 14 13 13 14 13 13 11 10 8 8 7 7 6 5 5 5 4 4 5 6 4 3 2 2 1 2 2
13 4 12 11 9 4 2 4 10 10 10 2 2 6 8 4 4 6 15 14 12 10 11 11 11 9 9 10 10 9 3 6 6 8 10 12 13 13 13 13 12 12 12 12 12 13 12 13 15 17 15 15 15 16 14 17 16 15 14 14 13 12 13 12 12 12 13 13 12 13 12 11 11 11 11 9 9 10 9 8 7 8 7 6 6 5 6 5 5 5 3 3 2 2 2 2 3
3 4 2 1 7 6 9 8 5 4 5 8 3 8 3 6 1 3 5 5 8 8 9 6 7 8 8 10 11 11 4 5 5 6 7 7 8 8 8 9 10 10 11 11 11 12 14 16 16 17 18 17 17 17 17 18 17 14 13 15 16 14 11 10 9 10 12 13 14 14 13 12 10 10 8 9 9 9 9 8 8 8 7 7 6 6 6 6 5 5 3 3 3 2 2 2 3
3 8 7 13 2 6 5 5 4 0 2 17 2 6 9 7 12 6 11 5 8 5 6 5 8 12 11 9 16 3 4 5 6 8 8 8 6 7 9 10 9 9 10 15 19 18 19 16 14 16 16 13 15 18 18 15 14 12 15 15 13 14 15 16 16 15 14 12 13 12 12 11 10 9 9 9 10 8 8 8 8 8 8 7 6 6 6 5 5 4 4 3 3 2 2 3 3
8 4 9 2 2 4 4 5 2 2 8 11 7 12 14 6 13 3 5 3 4 5 9 11 14 11 8 12 13 5 7 6 4 5 5 6 7 9 9 8 10 14 17 17 17 15 13 13 15 16 14 17 18 16 14 13 14 15 15 15 16 16 16 15 12 13 11 11 11 10 9 10 11 10 10 9 10 10 9 9 8 8 7 6 6 6 5 5 5 4 3 3 3 3 3 3 3
5 5 1 6 4 3 3 4 4 6 9 7 11 14 10 9 15 4 9 5 9 12 10 7 7 7 9 12 11 5 2 4 5 6 7 7 9 11 11 13 14 14 12 10 7 8 10 11 14 15 18 19 15 12 12 12 14 13 12 15 16 15 13 12 10 9 9 12 13 12 12 11 10 10 10 10 10 10 9 8 8 7 7 7 6 6 6 5 5 4 3 4 2 3 3 3 3
1 2 1 0 1 3 5 8 4 4 15 8 14 13 16 10 2 2 6 9 7 9 5 6 10 9 9 10 9 7 4 5 6 7 9 10 10 9 11 13 14 16 15 12 11 8 11 14 12 14 13 9 10 14 14 14 14 13 12 10 11 12 11 11 11 11 12 12 12 12 12 12 13 10 11 11 11 11 10 10 8 8 8 7 7 6 6 6 5 5 4 4 3 3 3 3 3
2 1 4 2 2 3 3 3 5 8 9 10 10 13 13 13 7 6 2 0 2 1 3 4 5 6 6 6 6 6 7 8 8 9 9 10 9 9 10 8 7 3 3 6 11 15 14 9 11 13 15 15 14 14 14 15 13 14 13 14 15 13 13 10 10 11 12 11 10 11 11 11 11 11 11 11 11 11 10 10 9 8 8 7 7 7 6 6 5 4 4 3 3 3 3 3 3
9 12 12 13 8 5 7 12 2 4 8 8 8 15 8 12 6 6 6 4 3 4 1 3 3 3 5 6 6 6 6 7 7 8 8 7 8 9 8 5 5 6 8 11 12 10 11 15 17 14 11 12 15 15 17 17 14 12 14 14 12 10 10 10 11 11 13 12 12 12 11 11 13 11 12 12 11 10 9 10 9 8 8 8 8 7 7 7 6 6 4 4 5 4 4 4 3
Wind_Direction
324 316 290 268 277 284 50 8 53 304 58 260 288 304 238 336 231 44 36 17 87 291 134 52 41 24 111 186 156 146 323 147 201 128 212 181 167 147 162 151 136 127 129 135 118 101 98 114 116 114 112 110 109 111 115 112 109 100 99 97 98 95 94 91 88 88 84 81 81 79 76 75 74 74 74 72 74 73 68 63 57 52 50 49 50 54 56 53 53 59 61 59 50 49 43 41 39
299 322 299 253 261 67 321 119 102 352 27 330 265 182 241 279 49 159 180 140 196 147 192 108 78 100 89 150 129 115 25 359 302 136 75 158 127 131 182 175 137 138 137 136 124 106 104 119 119 119 117 115 114 117 117 117 114 104 102 101 99 99 96 92 84 84 84 82 80 77 74 74 74 73 73 73 73 72 69 66 62 58 54 51 50 49 52 49 50 52 54 54 48 41 38 36 35
319 360 341 14 19 92 272 50 333 89 69 284 278 208 314 66 122 29 110 146 155 161 134 53 98 56 7 37 76 235 244 131 85 98 113 158 136 211 204 184 136 136 131 132 123 112 112 121 124 120 120 122 123 122 119 117 111 106 104 110 110 108 106 102 99 94 89 83 81 80 80 77 76 79 77 76 74 71 69 63 58 57 54 55 52 50 52 50 47 47 49 47 45 41 36 32 29
321 190 1 43 3 25 62 21 104 154 217 219 288 285 200 166 185 151 200 210 183 119 51 24 72 240 109 31 196 79 105 198 182 150 140 190 198 167 182 164 127 113 122 133 126 122 126 120 120 122 120 122 123 122 120 116 113 110 103 105 106 107 106 105 103 102 99 96 94 93 91 88 84 81 82 78 74 70 66 62 59 53 51 48 46 45 47 49 45 41 40 41 43 42 36 32 29
9 314 156 76 107 358 96 197 183 113 252 207 243 265 234 179 161 164 145 200 317 88 77 140 84 334 162 158 184 187 210 106 105 168 132 180 156 167 166 157 134 123 130 130 123 126 129 127 126 125 122 121 121 119 117 115 109 101 101 102 103 103 100 99 100 100 97 95 92 90 89 86 84 81 76 71 68 65 62 59 56 51 48 46 43 41 41 42 42 39 36 33 32 33 31 29 28
334 8 340 91 109 177 46 356 320 259 233 192 252 246 186 176 153 169 153 53 86 50 154 94 157 220 20 308 201 150 171 153 179 164 148 198 159 162 165 153 135 122 126 122 122 126 136 136 133 126 124 123 120 116 113 110 106 102 102 99 97 96 95 94 94 93 90 86 85 84 82 81 78 75 72 67 64 62 59 57 53 50 46 41 38 36 36 36 36 36 33 30 28 27 23 19 18
327 30 0 21 354 62 170 204 250 223 271 179 223 233 165 190 157 130 126 52 352 19 3 150 122 80 47 273 26 342 25 260 123 192 163 162 154 161 162 156 117 124 127 127 128 133 141 135 130 124 124 123 118 116 116 113 110 108 105 101 98 96 94 91 89 87 84 83 83 82 81 80 78 76 72 68 64 61 59 56 53 51 47 43 38 34 32 32 31 31 29 27 25 23 19 15 13
21 98 302 94 279 49 266 225 255 160 273 175 222 154 163 159 153 122 177 111 242 134 259 287 120 114 242 161 179 277 350 3 176 116 130 144 156 168 163 149 131 135 131 131 131 141 138 134 127 126 128 127 125 123 121 118 115 112 109 108 105 101 96 93 90 87 86 84 83 82 81 79 78 76 73 70 65 61 57 55 53 51 49 46 44 38 34 32 31 29 26 24 22 20 16 12 10
330 72 355 68 330 10 333 257 254 220 259 299 286 212 178 162 162 127 152 204 83 175 181 167 135 108 262 154 225 283 339 27 105 127 141 149 161 171 159 153 135 136 132 130 125 121 130 133 132 132 131 130 130 130 127 123 120 117 114 112 110 108 105 102 98 95 93 91 88 87 85 83 81 78 75 72 67 63 59 55 52 49 47 45 43 41 37 34 33 31 29 26 22 18 13 10 8
341 96 317 154 138 279 304 285 240 254 228 218 179 201 160 178 157 142 156 116 186 143 216 170 154 173 150 215 313 243 220 173 120 117 151 156 163 161 155 141 133 135 136 134 130 127 130 127 130 133 134 134 135 135 132 128 126 124 122 119 117 114 111 109 106 103 101 98 95 92 90 87 84 82 79 75 71 66 62 57 54 50 46 45 43 42 39 36 34 33 31 29 26 23 18 12 10
320 8 150 51 14 259 255 276 256 309 289 243 224 210 179 159 142 153 162 174 185 153 183 143 13 234 96 267 198 270 154 150 142 159 169 163 162 159 151 135 138 140 139 139 138 130 123 126 132 136 139 139 140 140 138 135 132 129 126 124 122 121 118 116 113 110 107 104 100 98 94 91 87 84 80 76 71 67 62 57 54 49 45 42 40 39 37 35 34 32 31 29 26 24 22 20 19
3 171 20 136 223 199 242 231 279 275 287 326 261 259 216 136 110 138 194 132 195 152 160 167 213 147 211 256 278 321 142 163 167 158 165 163 157 146 139 137 137 137 138 143 137 137 132 125 127 137 139 142 145 143 141 137 133 130 128 128 127 125 122 119 116 113 110 107 104 100 97 93 89 85 80 75 69 64 59 53 48 45 41 37 36 34 33 31 29 29 28 26 26 26 27 28 27
143 188 86 98 240 171 247 315 263 276 294 280 194 264 89 105 182 197 205 165 167 147 246 203 134 118 223 198 297 178 174 190 165 161 163 163 150 142 129 128 133 137 142 144 142 148 143 136 134 131 136 137 138 138 137 133 131 130 129 129 129 127 124 121 118 115 112 110 107 102 96 91 87 82 76 69 64 59 55 51 46 44 40 36 35 33 30 27 25 25 23 22 22 21 22 23 21
127 190 121 259 308 241 265 255 288 305 299 251 262 249 108 132 246 186 133 200 187 175 232 193 136 146 224 70 266 215 216 186 160 160 159 148 140 136 129 133 136 143 147 150 153 156 151 148 143 141 128 122 129 128 129 130 128 128 128 128 129 127 125 122 120 117 114 110 104 99 93 86 80 77 74 68 63 59 55 51 49 46 40 37 36 34 30 26 25 23 21 20 17 16 16 16 14
304 234 77 163 297 19 251 175 246 266 266 219 236 138 151 237 189 156 182 195 255 214 299 120 171 95 247 175 268 214 194 180 157 154 148 131 132 133 132 140 144 145 152 157 158 158 160 153 152 145 140 139 139 133 126 129 127 127 129 132 132 131 127 123 120 117 114 109 103 94 88 85 79 74 72 71 65 62 60 53 55 51 44 43 43 40 35 32 31 30 27 25 24 22 17 15 13
173 68 71 303 271 217 278 247 267 221 262 194 220 152 129 298 356 151 248 178 237 303 107 210 233 196 218 174 228 206 160 149 152 141 134 134 116 126 133 144 151 161 158 163 163 167 161 159 161 159 156 156 153 139 128 128 128 129 134 136 135 132 127 122 115 108 109 111 109 103 99 87 80 79 86 80 77 70 65 63 65 64 52 53 51 46 41 38 38 35 31 29 28 24 19 16 12
55 81 299 1 286 154 263 203 187 282 248 274 291 148 165 250 287 3 141 76 162 240 217 222 195 141 223 220 177 119 131 132 135 133 134 142 131 144 144 148 160 177 180 178 170 170 167 164 168 164 168 162 154 142 134 132 133 130 130 135 135 129 121 115 115 123 133 142 132 131 121 109 108 102 103 120 115 115 98 72 73 74 63 60 56 48 43 42 39 37 35 32 27 22 14 8 3
64 195 137 274 222 263 232 231 217 213 148 253 253 218 155 276 314 264 53 282 198 240 212 276 287 288 36 78 110 126 135 142 150 146 162 162 158 162 177 188 171 191 188 188 191 172 170 173 171 172 167 164 156 145 143 141 136 126 133 137 138 136 138 142 145 159 167 173 169 156 150 156 134 139 144 139 148 146 99 85 74 72 64 61 56 47 45 43 39 37 35 33 27 20 12 5 357
125 199 129 236 200 234 185 250 269 354 288 195 221 227 167 230 149 267 195 278 242 258 253 208 251 266 47 88 120 132 143 150 160 166 168 173 180 183 187 184 192 181 199 194 199 185 176 172 173 173 167 162 153 149 149 153 145 143 146 150 156 156 161 153 162 172 170 147 139 147 146 150 138 136 136 154 140 126 83 76 77 72 64 61 57 49 43 40 37 34 33 31 27 22 16 6 359
233 146 247 245 215 250 297 268 267 271 188 181 158 251 175 246 158 129 205 246 274 229 234 237 228 237 193 157 147 150 158 164 172 174 181 186 189 187 183 190 196 200 197 194 188 182 174 174 178 172 163 162 153 154 153 158 157 153 159 163 167 170 169 161 157 159 148 130 136 131 129 129 131 127 102 93 89 72 69 72 73 72 63 58 61 52 40 33 31 26 25 28 27 23 18 8 3
260 129 207 236 224 282 267 286 282 295 82 207 201 358 190 269 210 153 223 306 253 243 218 207 218 228 199 179 170 164 168 172 183 187 188 195 199 200 197 193 192 195 192 175 173 189 183 176 173 173 164 162 156 158 158 166 167 159 164 168 170 168 161 156 159 160 148 135 136 134 132 127 120 113 100 92 91 80 70 76 75 83 82 63 69 64 53 37 32 24 18 21 23 19 12 4 3
128 210 214 222 272 297 267 252 217 151 142 117 322 316 247 258 110 208 164 225 258 215 228 217 231 228 189 180 188 175 178 181 187 191 198 196 197 203 205 212 214 186 161 182 194 189 188 180 173 171 166 166 163 163 167 168 162 167 168 173 171 173 161 164 162 164 150 141 142 146 123 125 120 112 102 105 99 97 80 82 89 95 81 75 70 70 58 44 33 29 22 22 16 17 14 2 357
246 262 244 228 226 234 269 277 244 174 249 199 270 232 214 224 256 234 198 221 249 161 192 212 217 227 206 184 170 185 187 191 192 197 199 202 206 207 204 199 191 191 187 198 189 190 183 181 173 169 171 168 169 168 166 168 173 172 170 174 169 175 168 163 168 165 160 154 148 146 131 135 131 127 116 116 117 112 99 99 91 93 86 70 60 65 49 37 34 21 15 10 5 9 2 358 351
213 245 300 279 241 242 257 270 267 232 207 231 205 19 249 264 275 230 228 236 245 242 236 211 205 208 186 164 182 189 193 195 200 202 199 201 200 203 200 194 198 194 190 195 189 186 183 185 175 172 175 171 172 172 172 174 175 170 173 170 170 172 163 166 168 169 151 140 145 150 139 138 136 130 130 122 132 112 111 110 94 85 75 67 64 64 56 36 27 19 10 2 4 5 1 349 345
213 259 248 265 265 257 288 286 248 233 230 230 313 269 241 215 239 346 258 249 246 247 233 250 254 200 150 179 189 199 203 209 212 213 214 223 216 214 211 211 197 187 199 196 187 186 189 181 175 178 175 176 173 173 177 177 170 169 168 164 169 171 160 162 165 155 143 144 128 127 134 134 127 126 130 134 122 116 106 95 84 85 74 64 66 57 65 47 29 14 7 2 5 4 358 346 342
227 237 289 276 273 288 283 297 279 250 265 177 234 249 250 233 309 276 260 257 240 244 245 240 238 244 215 197 195 196 204 208 212 208 212 213 205 202 210 205 196 196 202 187 183 193 183 179 180 181 177 177 174 172 178 174 171 170 171 167 169 164 164 160 155 147 150 138 130 117 127 131 133 130 131 134 118 116 104 95 82 80 77 66 64 59 52 63 30 11 9 9 9 4 359 343 346
205 278 268 277 274 303 274 261 276 247 239 170 218 259 260 205 145 271 269 236 239 233 243 244 235 234 228 213 205 202 200 209 207 211 212 209 210 208 210 204 203 207 186 190 191 189 182 177 185 181 176 175 170 176 175 176 167 171 170 162 163 166 159 154 147 146 146 143 142 125 119 124 129 122 124 129 117 119 108 103 95 87 68 61 63 50 37 44 33 31 17 7 9 8 353 342 346
310 316 321 294 301 290 275 273 265 272 276 195 196 251 283 262 165 239 262 121 197 207 240 243 234 237 232 223 211 210 209 216 210 194 206 200 208 206 205 201 207 200 189 195 191 177 176 186 182 180 176 175 171 176 174 174 173 169 165 159 164 159 155 153 146 148 151 148 141 131 124 127 126 126 127 125 126 123 119 112 106 92 89 62 54 48 36 36 39 17 14 21 19 19 356 345 340
276 359 312 289 307 297 276 256 265 153 257 154 158 284 286 205 219 240 244 250 270 239 254 249 236 235 233 229 224 214 218 217 200 202 214 210 207 201 209 205 200 197 203 191 178 173 184 182 179 181 175 176 176 175 177 175 170 166 161 166 160 156 155 147 145 152 151 149 142 139 133 136 135 138 138 134 133 132 129 118 102 108 105 83 49 52 51 33 29 19 8 18 17 15 4 341 336
309 38 221 298 310 297 269 267 248 196 245 140 115 270 253 243 234 246 253 253 245 253 255 250 244 239 237 232 228 230 231 217 208 213 216 212 205 203 210 204 198 198 188 180 169 183 183 179 177 174 177 178 180 173 171 170 172 166 161 160 157 155 156 150 149 148 148 147 144 150 141 141 144 145 141 133 134 134 127 121 119 116 121 88 64 58 48 47 34 33 10 31 10 11 359 340 340
262 246 111 238 311 265 275 179 253 165 188 156 145 207 264 260 252 244 253 248 232 240 247 248 243 242 238 234 233 234 237 217 217 218 219 210 205 204 208 196 194 194 168 178 184 185 175 177 173 177 177 177 176 175 172 172 170 163 163 161 162 159 158 153 153 150 149 152 148 152 141 143 146 147 145 137 140 133 129 120 121 144 125 98 74 79 103 46 79 44 37 24 8 1 352 337 331
229 5 257 314 198 271 279 247 162 207 203 195 125 240 249 259 265 268 234 240 218 232 245 247 242 241 240 237 237 239 242 231 229 227 221 210 203 204 196 196 191 189 186 186 184 171 178 176 175 171 173 175 179 175 171 168 167 164 164 162 159 161 157 156 159 157 152 151 151 155 146 144 144 142 142 138 133 136 132 131 141 142 132 112 127 90 91 90 81 52 11 28 12 348 350 334 333
276 196 263 263 216 256 326 288 214 207 123 233 170 217 255 281 258 261 258 228 222 224 243 252 246 244 243 241 239 240 250 249 236 233 221 205 208 203 197 192 190 193 188 176 176 177 176 174 174 170 174 174 173 168 161 161 161 162 164 165 164 160 162 160 159 154 152 154 158 157 153 148 146 144 143 140 138 140 132 133 148 143 141 142 145 133 106 143 98 81 4 358 43 348 349 324 321
265 192 221 229 243 276 264 290 299 145 152 199 236 237 242 254 278 289 313 200 222 223 238 244 248 243 239 242 240 241 242 247 241 234 219 207 207 202 197 192 191 188 184 178 176 175 176 175 176 171 168 167 166 164 163 160 163 156 158 162 163 164 166 161 158 155 159 159 158 159 155 149 151 150 150 145 139 147 145 142 149 147 147 146 146 135 171 134 100 108 84 25 58 12 337 332 317
235 148 239 275 258 240 253 276 267 125 229 196 224 242 257 261 265 270 260 274 231 229 236 241 244 248 248 242 240 239 243 245 245 236 215 209 207 202 195 188 185 182 179 175 172 171 164 168 166 167 164 164 162 159 155 152 149 143 145 155 164 165 163 167 159 159 161 159 162 160 155 154 156 156 156 151 149 152 152 150 148 159 151 150 141 145 147 107 93 94 103 176 120 8 284 295 294
213 204 228 227 240 264 257 254 234 166 195 225 213 222 241 252 258 259 264 257 254 248 244 257 258 256 256 253 249 243 240 248 249 229 216 208 203 193 190 181 180 178 172 169 168 167 166 164 164 163 168 161 156 154 152 153 154 158 160 162 167 177 172 168 173 165 158 161 163 161 160 159 160 160 160 159 155 158 159 161 156 157 155 147 149 151 173 154 131 97 73 14 338 17 211 273 296
268 274 269 257 260 267 267 272 250 199 223 221 231 235 242 254 250 250 250 260 264 260 247 244 242 250 254 256 255 253 252 249 261 200 208 205 197 189 181 169 169 169 167 167 167 172 169 168 164 172 171 165 162 163 167 164 166 163 170 180 180 177 174 169 170 167 165 160 162 161 160 161 163 162 165 160 163 162 161 156 151 161 161 161 168 185 182 167 153 142 133 85 358 346 358 81 329
243 252 259 264 244 265 254 267 249 209 199 255 234 248 247 251 256 255 256 230 250 249 254 248 247 242 249 254 259 258 253 263 274 240 217 204 185 174 164 164 157 163 179 170 173 173 169 168 171 168 169 171 173 173 171 174 177 179 175 182 174 172 165 170 173 179 169 158 160 163 162 164 165 166 167 165 166 165 162 160 163 170 171 178 184 185 173 156 136 112 116 50 47 8 293 31 338
240 240 250 267 257 259 274 262 261 250 180 263 260 255 250 253 257 260 244 233 240 242 242 249 247 249 252 255 257 258 261 261 273 267 209 193 181 172 167 171 179 177 170 174 169 163 168 171 174 170 176 174 178 174 172 179 175 171 172 168 169 160 170 157 155 155 148 153 164 164 160 164 166 169 169 171 168 173 172 164 173 174 175 173 164 172 157 142 137 129 116 114 18 355 307 316 39
239 247 255 244 249 269 282 227 297 204 186 251 228 260 261 265 265 260 248 232 239 242 245 251 248 250 253 250 249 259 265 259 245 218 196 188 179 174 170 175 178 162 163 167 168 169 170 176 176 174 177 177 177 181 177 169 160 140 116 132 128 134 161 148 132 129 140 144 166 170 169 169 169 171 174 171 172 175 172 169 166 169 178 171 169 165 160 146 121 103 101 105 113 2 18 315 60
239 232 240 256 248 242 235 270 322 276 289 292 303 283 271 234 256 259 252 232 244 251 254 256 258 250 252 259 265 256 255 257 233 219 216 181 175 184 183 178 162 168 174 174 171 174 177 179 178 176 177 180 180 176 171 154 137 126 116 102 97 92 87 130 134 162 172 170 159 182 185 173 172 171 173 175 174 176 171 166 165 171 167 173 159 159 157 155 142 139 132 120 135 169 276 258 310
256 234 216 236 243 255 260 281 338 332 311 260 207 307 272 206 220 241 242 232 228 240 239 249 250 251 257 257 252 257 254 244 216 207 196 190 187 176 170 166 176 177 180 181 175 176 173 177 177 178 178 179 180 176 169 162 165 158 152 154 165 170 173 174 186 184 180 183 188 172 164 175 171 172 176 176 175 172 171 168 166 164 169 169 164 164 157 129 125 128 154 145 154 178 206 252 268
259 252 190 230 239 248 270 289 356 280 259 296 100 217 291 144 244 223 245 225 236 242 219 237 244 246 246 253 254 250 250 237 232 212 187 180 188 176 181 182 185 182 187 171 174 177 177 176 178 179 179 180 177 174 170 168 170 176 178 180 179 181 182 200 190 179 181 179 159 175 177 172 175 171 178 176 177 176 169 168 168 170 171 171 167 151 154 150 145 145 143 133 165 169 150 220 260
253 289 186 201 237 249 254 235 197 252 242 271 304 104 285 294 237 215 201 209 220 231 240 242 239 240 243 245 252 254 247 215 200 200 193 190 182 182 186 191 187 189 171 170 176 179 179 179 177 181 180 179 177 173 178 179 178 180 181 185 186 189 192 189 182 182 174 163 169 175 168 177 174 174 173 179 178 175 170 170 169 169 170 176 164 166 160 154 132 124 127 137 136 152 166 192 236
237 255 150 176 204 217 179 186 226 242 6 284 161 133 282 256 267 197 182 215 237 237 236 236 235 238 242 247 249 252 253 218 195 195 194 189 191 197 189 189 192 162 168 178 182 180 178 177 177 177 180 179 179 180 181 186 184 182 184 181 190 200 190 180 169 164 168 168 171 172 174 174 175 178 178 177 179 175 173 172 169 168 169 176 166 161 158 148 146 144 132 126 149 153 158 182 162
263 130 80 78 66 68 78 199 318 331 26 271 163 158 225 281 260 197 182 197 212 229 231 234 232 228 233 243 250 254 259 223 211 206 194 194 196 193 191 166 162 184 178 177 175 171 176 174 178 179 185 184 181 184 185 187 187 181 185 190 190 186 176 158 165 172 173 171 178 179 178 177 179 177 182 179 177 179 173 169 170 172 173 171 164 164 153 141 131 127 134 144 147 170 195 171 191
104 70 67 4 27 28 24 76 93 22 257 261 156 197 177 270 293 168 130 204 205 216 240 260 265 259 259 254 252 254 257 218 212 208 201 198 191 181 157 173 180 166 173 174 176 178 175 179 180 186 190 185 183 186 185 189 189 188 193 191 189 183 178 167 168 180 174 176 182 181 180 181 179 183 175 183 178 173 172 171 169 172 167 167 159 156 163 149 136 127 131 137 171 193 214 213 237
106 114 126 29 321 18 35 350 49 189 269 206 180 180 182 233 282 242 184 292 208 184 203 228 235 243 243 243 249 249 248 217 201 191 190 169 161 170 166 178 177 179 174 182 181 177 181 183 183 188 190 190 188 188 188 191 190 195 197 192 192 187 176 178 182 182 182 182 180 178 175 172 184 178 179 175 182 176 170 172 168 162 167 165 163 159 153 139 129 124 127 145 157 158 159 161 185
129 93 72 210 269 21 322 26 318 196 241 212 213 176 352 238 246 280 299 272 263 220 200 211 223 236 241 249 252 252 240 178 184 193 174 179 183 181 187 187 174 186 190 184 185 185 185 186 187 188 196 192 191 188 192 192 192 196 195 195 196 188 187 185 183 182 182 182 179 175 174 181 173 178 187 183 189 180 172 170 170 170 168 167 159 152 155 137 130 128 136 138 145 164 181 180 200
134 161 162 131 253 233 259 260 238 301 276 239 194 161 236 277 324 202 240 244 226 209 220 220 215 222 228 233 250 253 235 184 194 188 187 186 188 191 190 186 191 190 189 187 186 187 189 191 192 194 199 190 190 192 195 194 200 199 194 194 193 190 195 189 187 183 182 182 179 180 181 180 180 186 181 189 183 176 174 174 166 162 160 158 158 159 150 139 129 127 131 139 156 182 171 198 216
197 121 153 193 178 147 217 226 248 244 256 292 229 115 234 4 247 217 209 230 242 223 218 223 223 229 232 231 251 274 226 212 188 189 193 191 193 189 188 191 191 190 188 188 191 194 189 196 195 198 194 194 191 195 194 201 204 200 196 195 192 193 195 195 194 184 177 179 181 180 184 181 183 182 184 179 167 172 171 165 164 160 161 159 155 152 146 132 131 128 139 156 158 172 202 207 238
205 159 89 50 229 171 227 230 249 293 352 312 195 212 203 232 228 270 253 282 278 250 232 232 260 253 254 267 263 249 214 212 197 199 205 212 200 195 191 190 192 186 187 193 198 197 197 202 198 199 198 194 193 193 198 201 203 200 198 194 197 193 193 194 195 190 187 181 178 180 181 182 181 173 169 159 170 167 166 164 160 161 155 153 153 151 143 135 132 132 138 140 167 154 185 208 227
226 120 185 213 157 181 261 325 273 134 340 262 190 277 273 314 285 246 259 258 272 320 310 278 253 252 246 253 256 229 209 208 209 205 204 205 203 206 204 194 185 181 182 196 201 198 201 196 195 201 204 199 200 202 201 198 198 197 205 202 195 193 193 194 196 193 185 180 177 180 178 178 167 167 162 162 161 162 160 159 157 155 155 153 150 149 141 137 134 138 147 151 171 183 185 213 220
107 186 227 96 93 126 147 211 333 214 225 269 287 257 289 341 290 341 44 15 289 255 241 237 230 237 255 251 258 216 218 219 239 245 236 225 213 206 203 203 197 196 199 200 201 198 198 198 200 202 200 202 206 201 201 199 198 203 204 204 203 199 197 197 194 191 182 176 179 173 165 165 173 165 161 162 155 155 155 155 153 155 154 150 151 145 137 134 130 133 141 151 168 171 206 229 224
158 190 253 139 250 252 247 89 228 252 249 260 258 285 262 238 262 315 308 274 255 247 239 254 273 270 253 260 266 266 240 218 220 222 226 227 215 210 202 204 204 207 210 209 197 189 196 201 205 204 206 208 202 196 200 205 203 206 204 206 204 202 199 195 191 183 179 183 181 176 172 168 155 159 154 152 153 154 154 155 153 153 152 151 145 139 133 130 133 138 140 157 170 174 207 230 232
36 52 346 218 111 195 157 195 178 182 249 250 267 271 271 246 196 221 230 231 257 260 277 244 241 241 240 251 266 265 239 219 215 219 223 221 224 219 208 208 203 202 201 194 185 185 204 208 202 209 214 204 196 200 201 205 206 205 207 205 208 206 200 193 185 180 186 190 183 174 167 163 166 155 159 155 155 156 156 155 157 154 154 149 144 140 139 139 139 148 155 164 185 184 215 230 237
206 235 283 310 228 221 130 283 176 210 233 225 252 262 264 267 180 165 194 309 191 220 274 311 297 295 283 271 259 254 226 220 220 221 220 221 222 223 228 228 234 241 191 178 185 195 202 195 212 213 207 204 204 205 199 208 201 205 202 203 204 197 197 188 182 187 186 187 181 178 175 163 148 164 153 157 157 158 157 156 155 157 155 154 148 149 147 144 145 149 154 168 184 190 213 233 223
186 189 212 210 208 247 248 253 219 245 229 230 225 248 262 270 125 152 169 155 149 182 176 221 236 240 267 274 258 226 235 235 224 222 219 222 228 230 232 223 211 198 200 198 199 190 194 203 209 203 203 208 209 209 205 205 200 200 203 206 202 195 191 185 186 187 190 185 180 178 168 158 165 158 159 157 158 157 156 154 154 155 155 153 153 151 149 146 152 154 166 167 179 193 214 228 224